Location: Montebello
(37.3256°N, 122.1789°W)
Time: 10:28:18
(UTC-08:00)

ISS - Visible Passes

Search period start: 20 January 2018 00:00
Search period end: 30 January 2018 00:00
Orbit: 402 x 407 km, 51.6° (Epoch: 21 January)

Date Brightness Start Highest point End Pass type
(mag) Time Alt. Az. Time Alt. Az. Time Alt. Az.
22 Jan -1.3 19:25:17 10° SSW 19:26:12 17° SSW 19:26:12 17° SSW visible
23 Jan -2.4 18:33:40 10° S 18:36:14 22° SE 18:36:34 22° ESE visible
24 Jan -2.9 19:16:58 10° WSW 19:19:31 48° W 19:19:31 48° W visible
25 Jan -3.7 18:24:41 10° SW 18:27:53 60° SE 18:29:42 23° ENE visible
25 Jan -0.3 20:02:19 10° WNW 20:02:22 10° WNW 20:02:22 10° WNW visible
26 Jan -2.2 19:09:15 10° W 19:12:05 27° NNW 19:12:28 26° NNW visible
27 Jan -3.1 18:16:28 10° WSW 18:19:38 49° NW 18:22:28 12° NE visible
28 Jan -1.4 19:02:03 10° WNW 19:04:05 15° NNW 19:05:03 14° N visible
29 Jan -1.9 18:08:49 10° W 18:11:29 23° NNW 18:14:11 10° NNE visible
